This demonstration page uses our WeatherBlox Daily Observations layout. Learn more.

Left ArrowRight Arrow

34.16533, -84.80231

Hourly Observations for October 12, 2019

Temp ( °F °C ) Dew Point ( °F °C ) Humidity (%) Winds ( mph kmh ) Pressure ( in mb ) Visibility ( mi km ) Precip ( " mm )
12:53 am 00:53 Clear 66 18.9 57 13.9 73 73 Calm 30.01 1016 10 16 0.00 0.00
1:53 am 01:53 Clear 65 18.3 56 13.3 73 73 Calm 30.01 1016 10 16 0.00 0.00
2:53 am 02:53 Mostly Cloudy 66 18.9 56 13.3 70 70 Calm 30.00 1016 10 16 0.00 0.00
3:53 am 03:53 Cloudy 64 17.8 57 13.9 78 78 Calm 30.00 1016 10 16 0.00 0.00
4:53 am 04:53 Cloudy 64 17.8 56 13.3 75 75 Calm 30.01 1016 10 16 0.00 0.00
5:53 am 05:53 Clear 61 16.1 55 12.8 81 81 Calm 30.01 1016 10 16 0.00 0.00
6:53 am 06:53 Clear 62 16.7 55 12.8 78 78 Calm 30.01 1016 10 16 0.00 0.00
7:53 am 07:53 Mostly Cloudy 59 15 55 12.8 87 87 Calm 30.03 1017 10 16 0.00 0.00
8:53 am 08:53 Sunny 66 18.9 56 13.3 70 70 Calm 30.04 1017 10 16 0.00 0.00
9:53 am 09:53 Cloudy 69 20.6 58 14.4 68 68 VRB 3 6 30.05 1018 10 16 0.00 0.00
10:53 am 10:53 Partly Cloudy 72 22.2 59 15 64 64 N 10 17 30.05 1018 10 16 0.00 0.00
11:53 am 11:53 Sunny 75 23.9 58 14.4 55 55 VRB 6 9 30.05 1018 10 16 0.00 0.00
12:53 pm 12:53 Mostly Cloudy 76 24.4 57 13.9 52 52 VRB 7 11 30.05 1018 10 16 0.00 0.00
1:53 pm 13:53 Cloudy 75 23.9 58 14.4 55 55 VRB 5 7 30.05 1018 10 16 0.00 0.00
2:53 pm 14:53 Cloudy 74 23.3 57 13.9 56 56 VRB 7 11 30.04 1017 10 16 0.00 0.00
3:53 pm 15:53 Cloudy 75 23.9 57 13.9 54 54 N 9 15 30.03 1017 10 16 0.00 0.00
4:53 pm 16:53 Cloudy 73 22.8 55 12.8 53 53 VRB 3 6 30.03 1017 10 16 0.00 0.00
5:53 pm 17:53 Cloudy 70 21.1 54 12.2 57 57 N 5 7 30.04 1017 10 16 0.00 0.00
6:53 pm 18:53 Cloudy 69 20.6 54 12.2 59 59 Calm 30.03 1017 10 16 0.00 0.00
7:53 pm 19:53 Mostly Clear 64 17.8 54 12.2 70 70 Calm 30.03 1017 10 16 0.00 0.00
8:53 pm 20:53 Mostly Cloudy 63 17.2 55 12.8 76 76 Calm 30.04 1017 10 16 0.00 0.00
9:53 pm 21:53 Cloudy 62 16.7 55 12.8 78 78 Calm 30.04 1017 10 16 0.00 0.00
10:53 pm 22:53 Cloudy 64 17.8 54 12.2 70 70 Calm 30.03 1017 10 16 0.00 0.00
11:53 pm 23:53 Cloudy 64 17.8 51 10.6 63 63 N 5 7 30.02 1017 10 16 0.00 0.00

Powered by AerisWeather